map of BKH home
BKH - Airport
Location
City:  Kekaha, Kauai, Hawaii, United States
Name:Barking Sands Pacific Missile Range Facility (PMRF) Airport
ICAO:PHBK
IATA:BKH
FAA LID:BKH

Details
Type:Airport (Airfield)
Use:Military
Latitude:2201'22"N (22.022770)
Longitude:15947'06"W (-159.785062)
Datum:WGS 1984
Elevation:18 ft (5 m)
Variation:9.40E (WMM2015v2 magnetic declination)
-0.03 annual change
Runways:1
Longest:6002 × 150 ft (1829 × 45.5 m), paved

Time
Time Zone:UTC-10
Local Time:

Weather
METAR:PHBK 041256Z AUTO 00000KT 10SM CLR 18/14 A2994 RMK AO2 SLP141 T01830139 $

Related Locations
Nearby:
Farthest:GOG: 12358 mi / 19888 km
Gobabis, OH, NA

Find:

   beyond  
but within

Other Information
Maps:
NOTAMs:
Links:
Sources:

  
  • flag of United States
  • flag of Hawaii
  

Sectional Chart

Flight Planning
at skyvector.com

Satellite Image

Google Maps Satellite view

 

Copyright © 2004-2019 Karl L. Swartz. All rights reserved.
The Great Circle Mapper name and logo are trademarks of the Great Circle Mapper.
All other trademarks mentioned herein belong to their respective owners.
Please see credits for attibutions and further copyright information.

  Follow gcmap on Facebook Follow gcmap on Twitter GCmap on LinkedIn

hCard Microformat

Geo Microformat